Location: Columbia
(38.9520°N, 92.3340°W)
Time: 11:37:59
(UTC-05:00)

Cosmos 1603 - Visible Passes

Search period start: 28 May 2017 00:00
Search period end: 07 June 2017 00:00
Orbit: 830 x 861 km, 71.0° (Epoch: 27 May)

Date Brightness Start Highest point End Pass type
(mag) Time Alt. Az. Time Alt. Az. Time Alt. Az.
28 May 5.7 03:27:28 10° N 03:32:21 28° ENE 03:37:11 10° ESE visible
28 May 4.1 05:11:16 10° NW 05:16:33 40° WSW 05:21:47 10° S visible
29 May 5.7 03:13:34 10° N 03:18:24 27° ENE 03:23:12 10° ESE visible
29 May 4.1 04:57:20 10° NW 05:02:39 42° WSW 05:07:55 10° S visible
30 May 5.7 02:59:40 10° N 03:04:28 27° ENE 03:09:12 10° ESE visible
30 May 4.1 04:43:22 10° NW 04:48:44 43° WSW 04:54:02 10° S visible
31 May 5.7 02:45:47 10° N 02:50:31 26° ENE 02:55:11 10° ESE visible
31 May 4.0 04:29:25 10° NW 04:34:49 45° WSW 04:40:08 10° S visible
01 Jun 5.7 02:31:54 10° N 02:36:34 25° NE 02:41:11 10° ESE visible
01 Jun 4.0 04:15:29 10° NW 04:20:54 46° WSW 04:26:15 10° S visible
02 Jun 5.7 02:18:01 10° N 02:22:37 24° NE 02:27:10 10° ESE visible
02 Jun 3.9 04:01:32 10° NW 04:06:59 48° WSW 04:11:37 14° S visible
03 Jun 5.7 02:04:08 10° N 02:08:40 24° NE 02:13:10 10° ESE visible
03 Jun 3.9 03:47:35 10° NNW 03:53:04 49° WSW 03:56:24 23° S visible
04 Jun 5.7 01:50:15 10° N 01:54:44 23° NE 01:59:09 10° ESE visible
04 Jun 3.9 03:33:39 10° NNW 03:39:09 51° WSW 03:41:32 31° SSW visible
05 Jun 5.7 01:36:22 10° N 01:40:47 22° NE 01:45:04 10° ESE visible
05 Jun 3.8 03:19:42 10° NNW 03:25:14 53° WSW 03:26:53 40° SSW visible
06 Jun 5.7 01:22:29 10° N 01:26:50 22° NE 01:30:35 12° E visible
06 Jun 3.8 03:05:46 10° NNW 03:11:19 55° WSW 03:12:24 47° SSW visible
